Time,TemperatureF,DewpointF,PressureIn,WindDirection,WindDirectionDegrees,WindSpeedMPH,WindSpeedGustMPH,Humidity,HourlyPrecipIn,Conditions,Clouds,dailyrainin,SoftwareType,DateUTC
2013-01-17 00:01:00,34.7,32.6,29.90,WNW,300,0.0,0.0,92,0.00,,,0.53,Wunderground v.1.15,2013-01-17 05:01:00,
2013-01-17 00:04:00,34.7,32.6,29.90,WNW,292,1.0,2.0,92,0.00,,,0.00,Wunderground v.1.15,2013-01-17 05:04:00,
2013-01-17 00:06:00,34.7,32.9,29.90,WNW,292,1.0,3.0,93,0.00,,,0.00,Wunderground v.1.15,2013-01-17 05:06:00,
2013-01-17 00:07:00,34.8,33.0,29.90,WNW,290,1.0,3.0,93,0.00,,,0.00,Wunderground v.1.15,2013-01-17 05:07:00,
2013-01-17 00:14:00,34.8,33.0,29.90,WNW,302,1.0,2.0,93,0.00,,,0.00,Wunderground v.1.15,2013-01-17 05:14:00,
2013-01-17 00:19:00,34.7,33.2,29.89,WNW,294,1.0,4.0,94,0.00,,,0.00,Wunderground v.1.15,2013-01-17 05:19:00,
2013-01-17 00:24:00,34.7,33.2,29.90,WNW,294,1.0,2.0,94,0.00,,,0.00,Wunderground v.1.15,2013-01-17 05:24:00,
2013-01-17 00:30:00,34.6,33.1,29.90,West,274,1.0,1.0,94,0.00,,,0.00,Wunderground v.1.15,2013-01-17 05:30:00,
2013-01-17 00:35:00,34.6,33.1,29.89,West,274,0.0,1.0,94,0.00,,,0.00,Wunderground v.1.15,2013-01-17 05:35:00,
2013-01-17 00:41:00,34.6,33.1,29.91,West,274,0.0,0.0,94,0.00,,,0.00,Wunderground v.1.15,2013-01-17 05:41:00,
2013-01-17 00:47:00,34.8,33.2,29.90,West,274,0.0,0.0,94,0.00,,,0.00,Wunderground v.1.15,2013-01-17 05:47:00,
2013-01-17 00:53:00,35.0,33.4,29.90,West,274,0.0,0.0,94,0.00,,,0.00,Wunderground v.1.15,2013-01-17 05:53:00,
2013-01-17 00:59:00,35.0,33.4,29.90,West,274,0.0,2.0,94,0.00,,,0.00,Wunderground v.1.15,2013-01-17 05:59:00,
2013-01-17 01:04:00,35.0,33.4,29.90,West,274,0.0,0.0,94,0.00,,,0.00,Wunderground v.1.15,2013-01-17 06:04:00,
2013-01-17 01:10:00,35.1,33.3,29.91,West,274,0.0,0.0,93,0.00,,,0.00,Wunderground v.1.15,2013-01-17 06:10:00,
2013-01-17 01:16:00,34.9,33.1,29.89,West,274,0.0,0.0,93,0.00,,,0.00,Wunderground v.1.15,2013-01-17 06:16:00,
2013-01-17 01:22:00,34.8,32.7,29.90,West,274,0.0,0.0,92,0.00,,,0.00,Wunderground v.1.15,2013-01-17 06:22:00,
2013-01-17 01:29:00,34.8,32.7,29.90,West,274,0.0,0.0,92,0.00,,,0.00,Wunderground v.1.15,2013-01-17 06:29:00,
2013-01-17 01:34:00,34.7,32.9,29.91,West,274,0.0,0.0,93,0.00,,,0.00,Wunderground v.1.15,2013-01-17 06:34:00,
2013-01-17 01:39:00,34.7,32.9,29.91,West,274,0.0,0.0,93,0.00,,,0.00,Wunderground v.1.15,2013-01-17 06:39:00,
2013-01-17 01:45:00,34.7,32.9,29.90,WNW,285,1.0,2.0,93,0.00,,,0.00,Wunderground v.1.15,2013-01-17 06:45:00,
2013-01-17 01:50:00,34.8,33.0,29.90,WNW,300,2.0,3.0,93,0.00,,,0.00,Wunderground v.1.15,2013-01-17 06:50:00,
2013-01-17 01:56:00,34.9,33.1,29.89,WNW,287,2.0,3.0,93,0.00,,,0.00,Wunderground v.1.15,2013-01-17 06:56:00,
2013-01-17 02:02:00,35.0,33.2,29.90,WNW,287,0.0,0.0,93,0.00,,,0.00,Wunderground v.1.15,2013-01-17 07:02:00,
2013-01-17 02:09:00,35.0,33.2,29.90,WNW,287,0.0,0.0,93,0.00,,,0.00,Wunderground v.1.15,2013-01-17 07:09:00,
2013-01-17 02:14:00,35.0,32.9,29.90,WNW,287,0.0,0.0,92,0.00,,,0.00,Wunderground v.1.15,2013-01-17 07:14:00,
2013-01-17 02:20:00,34.9,32.8,29.90,WNW,287,0.0,0.0,92,0.00,,,0.00,Wunderground v.1.15,2013-01-17 07:20:00,
2013-01-17 02:26:00,34.7,32.6,29.91,WNW,287,0.0,0.0,92,0.00,,,0.00,Wunderground v.1.15,2013-01-17 07:26:00,
2013-01-17 02:32:00,34.7,32.6,29.91,WNW,287,0.0,0.0,92,0.00,,,0.00,Wunderground v.1.15,2013-01-17 07:32:00,
2013-01-17 02:37:00,34.5,32.4,29.92,WNW,287,0.0,0.0,92,0.00,,,0.00,Wunderground v.1.15,2013-01-17 07:37:00,
2013-01-17 02:44:00,34.5,32.4,29.91,WNW,287,0.0,0.0,92,0.00,,,0.00,Wunderground v.1.15,2013-01-17 07:44:00,
2013-01-17 02:49:00,34.5,32.4,29.92,WNW,287,0.0,1.0,92,0.00,,,0.00,Wunderground v.1.15,2013-01-17 07:49:00,
2013-01-17 02:54:00,34.5,32.4,29.91,WNW,287,0.0,0.0,92,0.00,,,0.00,Wunderground v.1.15,2013-01-17 07:54:00,
2013-01-17 03:00:00,34.6,32.5,29.91,WNW,287,0.0,0.0,92,0.00,,,0.00,Wunderground v.1.15,2013-01-17 08:00:00,
2013-01-17 03:06:00,34.6,32.5,29.91,WNW,287,0.0,0.0,92,0.00,,,0.00,Wunderground v.1.15,2013-01-17 08:06:00,
2013-01-17 03:11:00,34.5,32.4,29.91,WNW,287,0.0,0.0,92,0.00,,,0.00,Wunderground v.1.15,2013-01-17 08:11:00,
2013-01-17 03:17:00,34.5,32.4,29.92,WNW,287,0.0,0.0,92,0.00,,,0.00,Wunderground v.1.15,2013-01-17 08:17:00,
2013-01-17 03:22:00,34.5,32.4,29.91,WNW,287,0.0,0.0,92,0.00,,,0.00,Wunderground v.1.15,2013-01-17 08:22:00,
2013-01-17 03:28:00,34.3,32.2,29.90,WNW,287,0.0,0.0,92,0.00,,,0.00,Wunderground v.1.15,2013-01-17 08:28:00,
2013-01-17 03:34:00,34.2,32.1,29.91,WNW,287,0.0,1.0,92,0.00,,,0.00,Wunderground v.1.15,2013-01-17 08:34:00,
2013-01-17 03:40:00,34.2,32.4,29.91,WNW,287,0.0,0.0,93,0.00,,,0.00,Wunderground v.1.15,2013-01-17 08:40:00,
2013-01-17 03:45:00,34.2,32.4,29.91,WNW,287,0.0,1.0,93,0.00,,,0.00,Wunderground v.1.15,2013-01-17 08:45:00,
2013-01-17 03:51:00,34.3,32.5,29.90,WNW,287,0.0,0.0,93,0.00,,,0.00,Wunderground v.1.15,2013-01-17 08:51:00,
2013-01-17 03:57:00,34.1,32.3,29.91,WNW,287,0.0,1.0,93,0.00,,,0.00,Wunderground v.1.15,2013-01-17 08:57:00,
2013-01-17 04:02:00,34.0,32.2,29.91,WNW,287,0.0,0.0,93,0.00,,,0.00,Wunderground v.1.15,2013-01-17 09:02:00,
2013-01-17 04:08:00,33.8,32.0,29.91,WNW,287,0.0,0.0,93,0.00,,,0.00,Wunderground v.1.15,2013-01-17 09:08:00,
2013-01-17 04:14:00,33.8,32.0,29.92,WNW,287,0.0,1.0,93,0.00,,,0.00,Wunderground v.1.15,2013-01-17 09:14:00,
2013-01-17 04:19:00,33.8,32.3,29.92,WNW,287,0.0,1.0,94,0.00,,,0.00,Wunderground v.1.15,2013-01-17 09:19:00,
2013-01-17 04:25:00,33.8,32.3,29.91,WNW,287,0.0,0.0,94,0.00,,,0.00,Wunderground v.1.15,2013-01-17 09:25:00,
2013-01-17 04:30:00,34.0,32.5,29.91,WNW,287,0.0,0.0,94,0.00,,,0.00,Wunderground v.1.15,2013-01-17 09:30:00,
2013-01-17 04:36:00,34.0,32.5,29.91,WNW,287,0.0,1.0,94,0.00,,,0.00,Wunderground v.1.15,2013-01-17 09:36:00,
2013-01-17 04:42:00,34.1,32.6,29.91,WNW,287,0.0,0.0,94,0.00,,,0.00,Wunderground v.1.15,2013-01-17 09:42:00,
2013-01-17 04:48:00,34.2,32.4,29.90,WNW,287,0.0,0.0,93,0.00,,,0.00,Wunderground v.1.15,2013-01-17 09:48:00,
2013-01-17 04:53:00,34.2,32.4,29.90,WNW,287,0.0,0.0,93,0.00,,,0.00,Wunderground v.1.15,2013-01-17 09:53:00,
2013-01-17 04:59:00,34.2,32.4,29.90,WNW,287,0.0,0.0,93,0.00,,,0.00,Wunderground v.1.15,2013-01-17 09:59:00,
2013-01-17 05:04:00,34.2,32.4,29.91,WNW,287,0.0,2.0,93,0.00,,,0.00,Wunderground v.1.15,2013-01-17 10:04:00,
2013-01-17 05:10:00,34.2,32.4,29.91,WNW,287,0.0,0.0,93,0.00,,,0.00,Wunderground v.1.15,2013-01-17 10:10:00,
2013-01-17 05:16:00,34.2,32.4,29.91,WNW,287,0.0,1.0,93,0.00,,,0.00,Wunderground v.1.15,2013-01-17 10:16:00,
2013-01-17 05:21:00,34.3,32.5,29.92,WNW,283,1.0,3.0,93,0.00,,,0.00,Wunderground v.1.15,2013-01-17 10:21:00,
2013-01-17 05:27:00,34.4,32.0,29.92,WSW,252,2.0,4.0,91,0.00,,,0.00,Wunderground v.1.15,2013-01-17 10:27:00,
2013-01-17 05:32:00,34.6,31.7,29.92,NW,304,3.0,6.0,89,0.00,,,0.00,Wunderground v.1.15,2013-01-17 10:32:00,
2013-01-17 05:38:00,35.1,31.6,29.92,WNW,300,3.0,6.0,87,0.00,,,0.00,Wunderground v.1.15,2013-01-17 10:38:00,
2013-01-17 05:44:00,35.3,31.2,29.93,WSW,253,4.0,7.0,85,0.00,,,0.00,Wunderground v.1.15,2013-01-17 10:44:00,
2013-01-17 05:49:00,35.6,30.6,29.94,West,279,5.0,11.0,82,0.00,,,0.00,Wunderground v.1.15,2013-01-17 10:49:00,
2013-01-17 05:54:00,35.8,30.8,29.94,West,269,5.0,6.0,82,0.00,,,0.00,Wunderground v.1.15,2013-01-17 10:54:00,
2013-01-17 06:00:00,35.9,30.9,29.93,NW,312,1.0,1.0,82,0.00,,,0.00,Wunderground v.1.15,2013-01-17 11:00:00,
2013-01-17 06:06:00,35.8,30.8,29.92,North,360,0.0,1.0,82,0.00,,,0.00,Wunderground v.1.15,2013-01-17 11:06:00,
2013-01-17 06:12:00,35.8,31.1,29.93,North,360,0.0,0.0,83,0.00,,,0.00,Wunderground v.1.15,2013-01-17 11:12:00,
2013-01-17 06:18:00,35.5,31.1,29.94,North,360,0.0,0.0,84,0.00,,,0.00,Wunderground v.1.15,2013-01-17 11:18:00,
2013-01-17 06:23:00,35.1,30.8,29.95,North,360,0.0,0.0,84,0.00,,,0.00,Wunderground v.1.15,2013-01-17 11:23:00,
2013-01-17 06:29:00,35.1,30.8,29.94,WSW,255,1.0,3.0,84,0.00,,,0.00,Wunderground v.1.15,2013-01-17 11:29:00,
2013-01-17 06:35:00,35.1,30.5,29.95,WNW,294,2.0,5.0,83,0.00,,,0.00,Wunderground v.1.15,2013-01-17 11:35:00,
2013-01-17 06:41:00,35.2,30.6,29.96,WSW,250,1.0,2.0,83,0.00,,,0.00,Wunderground v.1.15,2013-01-17 11:41:00,
2013-01-17 06:46:00,35.2,30.3,29.96,WSW,250,0.0,2.0,82,0.00,,,0.00,Wunderground v.1.15,2013-01-17 11:46:00,
2013-01-17 06:52:00,35.2,30.0,29.96,WNW,292,1.0,2.0,81,0.00,,,0.00,Wunderground v.1.15,2013-01-17 11:52:00,
2013-01-17 06:57:00,35.4,30.5,29.96,WNW,296,1.0,2.0,82,0.00,,,0.00,Wunderground v.1.15,2013-01-17 11:57:00,
2013-01-17 07:04:00,35.4,30.5,29.97,WNW,296,0.0,1.0,82,0.00,,,0.00,Wunderground v.1.15,2013-01-17 12:04:00,
2013-01-17 07:09:00,35.4,30.5,29.97,WSW,253,1.0,6.0,82,0.00,,,0.00,Wunderground v.1.15,2013-01-17 12:09:00,
2013-01-17 07:14:00,35.4,30.5,29.96,North,360,1.0,4.0,82,0.00,,,0.00,Wunderground v.1.15,2013-01-17 12:14:00,
2013-01-17 07:20:00,35.3,29.7,29.97,SW,230,1.0,1.0,80,0.00,,,0.00,Wunderground v.1.15,2013-01-17 12:20:00,
2013-01-17 07:25:00,35.5,29.9,29.99,NW,307,2.0,3.0,80,0.00,,,0.00,Wunderground v.1.15,2013-01-17 12:25:00,
2013-01-17 07:31:00,35.6,30.0,29.99,WNW,300,2.0,4.0,80,0.00,,,0.00,Wunderground v.1.15,2013-01-17 12:31:00,
2013-01-17 07:36:00,35.7,30.1,29.99,NW,313,1.0,4.0,80,0.00,,,0.00,Wunderground v.1.15,2013-01-17 12:36:00,
2013-01-17 07:41:00,35.7,30.1,29.98,NNW,331,1.0,1.0,80,0.00,,,0.00,Wunderground v.1.15,2013-01-17 12:41:00,
2013-01-17 07:47:00,35.7,29.8,29.98,WNW,296,1.0,2.0,79,0.00,,,0.00,Wunderground v.1.15,2013-01-17 12:47:00,
2013-01-17 07:53:00,35.9,29.7,30.00,NW,311,2.0,6.0,78,0.00,,,0.00,Wunderground v.1.15,2013-01-17 12:53:00,
2013-01-17 07:58:00,36.1,29.9,29.99,NW,311,2.0,6.0,78,0.00,,,0.00,Wunderground v.1.15,2013-01-17 12:58:00,
2013-01-17 08:04:00,36.3,29.5,30.00,West,277,1.0,5.0,76,0.00,,,0.00,Wunderground v.1.15,2013-01-17 13:04:00,
2013-01-17 08:10:00,36.3,29.8,30.00,WSW,244,3.0,3.0,77,0.00,,,0.00,Wunderground v.1.15,2013-01-17 13:10:00,
2013-01-17 08:15:00,36.4,29.6,30.00,WNW,282,3.0,5.0,76,0.00,,,0.00,Wunderground v.1.15,2013-01-17 13:15:00,
2013-01-17 08:21:00,36.6,29.7,30.00,NNW,332,3.0,5.0,76,0.00,,,0.00,Wunderground v.1.15,2013-01-17 13:21:00,
2013-01-17 08:26:00,36.7,29.5,30.01,NW,305,3.0,5.0,75,0.00,,,0.00,Wunderground v.1.15,2013-01-17 13:26:00,
2013-01-17 08:32:00,36.9,29.7,30.01,WNW,288,2.0,3.0,75,0.00,,,0.00,Wunderground v.1.15,2013-01-17 13:32:00,
2013-01-17 08:38:00,37.0,29.8,30.01,WSW,248,3.0,5.0,75,0.00,,,0.00,Wunderground v.1.15,2013-01-17 13:38:00,
2013-01-17 08:44:00,37.1,29.6,30.01,West,266,3.0,8.0,74,0.00,,,0.00,Wunderground v.1.15,2013-01-17 13:44:00,
2013-01-17 08:50:00,37.2,29.3,30.02,NW,308,3.0,3.0,73,0.00,,,0.00,Wunderground v.1.15,2013-01-17 13:50:00,
2013-01-17 08:56:00,37.2,29.3,30.02,West,269,3.0,6.0,73,0.00,,,0.00,Wunderground v.1.15,2013-01-17 13:56:00,
2013-01-17 09:01:00,37.2,29.7,30.02,WSW,254,3.0,5.0,74,0.00,,,0.00,Wunderground v.1.15,2013-01-17 14:01:00,
2013-01-17 09:06:00,37.2,29.3,30.02,SW,215,2.0,5.0,73,0.00,,,0.00,Wunderground v.1.15,2013-01-17 14:06:00,
2013-01-17 09:12:00,37.2,29.7,30.02,West,263,3.0,4.0,74,0.00,,,0.00,Wunderground v.1.15,2013-01-17 14:12:00,
2013-01-17 09:18:00,37.2,29.3,30.03,NW,304,4.0,11.0,73,0.00,,,0.00,Wunderground v.1.15,2013-01-17 14:18:00,
2013-01-17 09:24:00,37.2,29.7,30.03,NW,306,4.0,5.0,74,0.00,,,0.00,Wunderground v.1.15,2013-01-17 14:24:00,
2013-01-17 09:30:00,37.4,29.9,30.03,WNW,291,3.0,3.0,74,0.00,,,0.00,Wunderground v.1.15,2013-01-17 14:30:00,
2013-01-17 09:36:00,37.6,29.7,30.03,WNW,295,2.0,4.0,73,0.00,,,0.00,Wunderground v.1.15,2013-01-17 14:36:00,
2013-01-17 09:41:00,37.8,29.9,30.03,SW,215,2.0,2.0,73,0.00,,,0.00,Wunderground v.1.15,2013-01-17 14:41:00,
2013-01-17 09:47:00,38.1,29.9,30.04,WNW,301,1.0,2.0,72,0.00,,,0.00,Wunderground v.1.15,2013-01-17 14:47:00,
2013-01-17 09:52:00,38.3,30.1,30.04,NW,308,1.0,4.0,72,0.00,,,0.00,Wunderground v.1.15,2013-01-17 14:52:00,
2013-01-17 09:58:00,38.5,30.3,30.04,WNW,301,1.0,4.0,72,0.00,,,0.00,Wunderground v.1.15,2013-01-17 14:58:00,
2013-01-17 10:04:00,38.8,30.5,30.03,WSW,252,1.0,5.0,72,0.00,,,0.00,Wunderground v.1.15,2013-01-17 15:04:00,
2013-01-17 10:09:00,38.8,30.2,30.03,West,279,3.0,5.0,71,0.00,,,0.00,Wunderground v.1.15,2013-01-17 15:09:00,
2013-01-17 10:15:00,38.8,30.2,30.04,WNW,294,4.0,4.0,71,0.00,,,0.00,Wunderground v.1.15,2013-01-17 15:15:00,
2013-01-17 10:20:00,38.7,30.1,30.04,West,281,4.0,4.0,71,0.00,,,0.00,Wunderground v.1.15,2013-01-17 15:20:00,
2013-01-17 10:26:00,38.8,30.2,30.04,WSW,246,3.0,4.0,71,0.00,,,0.00,Wunderground v.1.15,2013-01-17 15:26:00,
2013-01-17 10:31:00,38.8,30.5,30.03,West,269,2.0,4.0,72,0.00,,,0.00,Wunderground v.1.15,2013-01-17 15:31:00,
2013-01-17 10:37:00,38.8,30.2,30.03,WNW,298,4.0,8.0,71,0.00,,,0.00,Wunderground v.1.15,2013-01-17 15:37:00,
2013-01-17 10:42:00,38.8,30.2,30.03,NW,314,6.0,9.0,71,0.00,,,0.00,Wunderground v.1.15,2013-01-17 15:42:00,
2013-01-17 10:48:00,38.8,30.5,30.03,West,276,6.0,14.0,72,0.00,,,0.00,Wunderground v.1.15,2013-01-17 15:48:00,
2013-01-17 10:54:00,39.1,30.5,30.03,West,277,7.0,13.0,71,0.00,,,0.00,Wunderground v.1.15,2013-01-17 15:54:00,
2013-01-17 11:00:00,39.4,30.8,30.04,NW,311,7.0,8.0,71,0.00,,,0.00,Wunderground v.1.15,2013-01-17 16:00:00,
2013-01-17 11:06:00,39.9,30.9,30.04,NW,305,6.0,9.0,70,0.00,,,0.00,Wunderground v.1.15,2013-01-17 16:06:00,
2013-01-17 11:12:00,40.3,30.9,30.03,West,279,6.0,12.0,69,0.00,,,0.00,Wunderground v.1.15,2013-01-17 16:12:00,
2013-01-17 11:17:00,40.2,30.5,30.02,West,271,7.0,18.0,68,0.00,,,0.00,Wunderground v.1.15,2013-01-17 16:17:00,
2013-01-17 11:23:00,39.9,30.5,30.02,WNW,294,8.0,8.0,69,0.00,,,0.00,Wunderground v.1.15,2013-01-17 16:23:00,
2013-01-17 11:29:00,39.9,30.5,30.03,NW,316,7.0,10.0,69,0.00,,,0.00,Wunderground v.1.15,2013-01-17 16:29:00,
2013-01-17 11:34:00,40.1,30.7,30.03,NNE,13,6.0,7.0,69,0.00,,,0.00,Wunderground v.1.15,2013-01-17 16:34:00,
2013-01-17 11:39:00,40.3,30.6,30.03,WNW,294,6.0,13.0,68,0.00,,,0.00,Wunderground v.1.15,2013-01-17 16:39:00,
2013-01-17 11:45:00,40.2,30.5,30.04,NW,309,6.0,12.0,68,0.00,,,0.00,Wunderground v.1.15,2013-01-17 16:45:00,
2013-01-17 11:51:00,40.4,30.7,30.04,NW,320,6.0,7.0,68,0.00,,,0.00,Wunderground v.1.15,2013-01-17 16:51:00,
2013-01-17 11:57:00,40.8,30.7,30.03,West,273,5.0,9.0,67,0.00,,,0.00,Wunderground v.1.15,2013-01-17 16:57:00,
2013-01-17 12:02:00,41.0,30.9,30.03,North,5,4.0,6.0,67,0.00,,,0.00,Wunderground v.1.15,2013-01-17 17:02:00,
2013-01-17 12:07:00,41.3,30.8,30.03,NW,310,4.0,6.0,66,0.00,,,0.00,Wunderground v.1.15,2013-01-17 17:07:00,
2013-01-17 12:12:00,41.8,30.9,30.02,North,5,4.0,6.0,65,0.00,,,0.00,Wunderground v.1.15,2013-01-17 17:12:00,
2013-01-17 12:18:00,42.0,30.7,30.02,SW,219,4.0,6.0,64,0.00,,,0.00,Wunderground v.1.15,2013-01-17 17:18:00,
2013-01-17 12:23:00,42.0,30.3,30.02,WNW,285,6.0,9.0,63,0.00,,,0.00,Wunderground v.1.15,2013-01-17 17:23:00,
2013-01-17 12:29:00,42.2,30.1,30.02,WNW,288,7.0,15.0,62,0.00,,,0.00,Wunderground v.1.15,2013-01-17 17:29:00,
2013-01-17 12:34:00,42.2,29.3,30.03,WNW,293,7.0,15.0,60,0.00,,,0.00,Wunderground v.1.15,2013-01-17 17:34:00,
2013-01-17 12:40:00,41.9,29.0,30.02,NW,316,6.0,6.0,60,0.00,,,0.00,Wunderground v.1.15,2013-01-17 17:40:00,
2013-01-17 12:46:00,41.8,29.3,30.02,NNW,328,5.0,9.0,61,0.00,,,0.00,Wunderground v.1.15,2013-01-17 17:46:00,
2013-01-17 12:51:00,41.9,29.0,30.02,NW,317,5.0,5.0,60,0.00,,,0.00,Wunderground v.1.15,2013-01-17 17:51:00,
2013-01-17 12:57:00,42.1,30.0,30.02,NNW,330,4.0,7.0,62,0.00,,,0.00,Wunderground v.1.15,2013-01-17 17:57:00,
2013-01-17 13:02:00,42.4,29.5,30.02,WNW,285,4.0,5.0,60,0.00,,,0.00,Wunderground v.1.15,2013-01-17 18:02:00,
2013-01-17 13:08:00,42.6,29.3,30.03,NW,320,5.0,5.0,59,0.00,,,0.00,Wunderground v.1.15,2013-01-17 18:08:00,
2013-01-17 13:13:00,42.2,28.9,30.03,WNW,303,5.0,10.0,59,0.00,,,0.00,Wunderground v.1.15,2013-01-17 18:13:00,
2013-01-17 13:19:00,41.8,28.9,30.02,WNW,291,6.0,10.0,60,0.00,,,0.00,Wunderground v.1.15,2013-01-17 18:19:00,
2013-01-17 13:25:00,41.6,28.7,30.02,WNW,287,5.0,7.0,60,0.00,,,0.00,Wunderground v.1.15,2013-01-17 18:25:00,
2013-01-17 13:30:00,41.4,28.5,30.02,NNW,334,4.0,4.0,60,0.00,,,0.00,Wunderground v.1.15,2013-01-17 18:30:00,
2013-01-17 13:36:00,41.3,28.9,30.02,WNW,293,3.0,7.0,61,0.00,,,0.00,Wunderground v.1.15,2013-01-17 18:36:00,
2013-01-17 13:42:00,41.2,29.5,30.02,West,281,4.0,5.0,63,0.00,,,0.00,Wunderground v.1.15,2013-01-17 18:42:00,
2013-01-17 13:48:00,41.0,29.4,30.03,West,259,5.0,6.0,63,0.00,,,0.00,Wunderground v.1.15,2013-01-17 18:48:00,
2013-01-17 13:53:00,41.0,29.4,30.02,West,280,4.0,7.0,63,0.00,,,0.00,Wunderground v.1.15,2013-01-17 18:53:00,
2013-01-17 13:59:00,40.9,29.3,30.03,NW,305,4.0,7.0,63,0.00,,,0.00,Wunderground v.1.15,2013-01-17 18:59:00,
2013-01-17 14:04:00,40.8,29.2,30.03,WNW,284,5.0,6.0,63,0.00,,,0.00,Wunderground v.1.15,2013-01-17 19:04:00,
2013-01-17 14:10:00,41.0,29.4,30.02,West,281,4.0,4.0,63,0.00,,,0.00,Wunderground v.1.15,2013-01-17 19:10:00,
2013-01-17 14:15:00,41.1,29.1,30.02,WNW,299,3.0,4.0,62,0.00,,,0.00,Wunderground v.1.15,2013-01-17 19:15:00,
2013-01-17 14:21:00,41.0,29.0,30.02,NW,306,5.0,5.0,62,0.00,,,0.00,Wunderground v.1.15,2013-01-17 19:21:00,
2013-01-17 14:27:00,41.0,29.0,30.02,West,278,6.0,6.0,62,0.00,,,0.00,Wunderground v.1.15,2013-01-17 19:27:00,
2013-01-17 14:33:00,41.1,29.1,30.02,West,271,4.0,6.0,62,0.00,,,0.00,Wunderground v.1.15,2013-01-17 19:33:00,
2013-01-17 14:39:00,41.2,29.5,30.02,NW,311,3.0,6.0,63,0.00,,,0.00,Wunderground v.1.15,2013-01-17 19:39:00,
2013-01-17 14:45:00,41.1,29.1,30.02,West,275,4.0,7.0,62,0.00,,,0.00,Wunderground v.1.15,2013-01-17 19:45:00,
2013-01-17 14:51:00,41.2,29.2,30.02,NW,308,3.0,3.0,62,0.00,,,0.00,Wunderground v.1.15,2013-01-17 19:51:00,
2013-01-17 14:57:00,40.9,28.9,30.02,WNW,301,3.0,6.0,62,0.00,,,0.00,Wunderground v.1.15,2013-01-17 19:57:00,
2013-01-17 15:02:00,40.8,28.8,30.03,WNW,298,3.0,3.0,62,0.00,,,0.00,Wunderground v.1.15,2013-01-17 20:02:00,
2013-01-17 15:08:00,40.5,28.5,30.03,WNW,299,4.0,12.0,62,0.00,,,0.00,Wunderground v.1.15,2013-01-17 20:08:00,
2013-01-17 15:14:00,40.2,28.2,30.03,WNW,283,6.0,9.0,62,0.00,,,0.00,Wunderground v.1.15,2013-01-17 20:14:00,
2013-01-17 15:19:00,40.0,28.0,30.03,NW,311,6.0,9.0,62,0.00,,,0.00,Wunderground v.1.15,2013-01-17 20:19:00,
2013-01-17 15:24:00,39.9,28.3,30.02,WNW,300,5.0,9.0,63,0.00,,,0.00,Wunderground v.1.15,2013-01-17 20:24:00,
2013-01-17 15:30:00,39.8,28.2,30.03,NW,317,4.0,4.0,63,0.00,,,0.00,Wunderground v.1.15,2013-01-17 20:30:00,
2013-01-17 15:36:00,39.7,28.1,30.02,WNW,292,4.0,7.0,63,0.00,,,0.00,Wunderground v.1.15,2013-01-17 20:36:00,
2013-01-17 15:41:00,39.7,28.1,30.03,NW,307,3.0,7.0,63,0.00,,,0.00,Wunderground v.1.15,2013-01-17 20:41:00,
2013-01-17 15:47:00,39.7,28.1,30.03,NW,306,3.0,7.0,63,0.00,,,0.00,Wunderground v.1.15,2013-01-17 20:47:00,
2013-01-17 15:53:00,39.7,28.5,30.04,WNW,296,2.0,4.0,64,0.00,,,0.00,Wunderground v.1.15,2013-01-17 20:53:00,
2013-01-17 15:58:00,39.7,28.5,30.04,WNW,299,2.0,5.0,64,0.00,,,0.00,Wunderground v.1.15,2013-01-17 20:58:00,
2013-01-17 16:04:00,39.6,28.4,30.04,West,269,2.0,3.0,64,0.00,,,0.00,Wunderground v.1.15,2013-01-17 21:04:00,
2013-01-17 16:09:00,39.6,28.4,30.04,WNW,301,1.0,3.0,64,0.00,,,0.00,Wunderground v.1.15,2013-01-17 21:09:00,
2013-01-17 16:15:00,39.7,28.5,30.04,WNW,300,1.0,2.0,64,0.00,,,0.00,Wunderground v.1.15,2013-01-17 21:15:00,
2013-01-17 16:21:00,39.7,28.5,30.04,WNW,292,1.0,1.0,64,0.00,,,0.00,Wunderground v.1.15,2013-01-17 21:21:00,
2013-01-17 16:26:00,39.8,29.0,30.04,WNW,292,1.0,1.0,65,0.00,,,0.00,Wunderground v.1.15,2013-01-17 21:26:00,
2013-01-17 16:32:00,39.8,29.0,30.05,WNW,301,1.0,4.0,65,0.00,,,0.00,Wunderground v.1.15,2013-01-17 21:32:00,
2013-01-17 16:38:00,39.7,29.3,30.05,West,281,2.0,4.0,66,0.00,,,0.00,Wunderground v.1.15,2013-01-17 21:38:00,
2013-01-17 16:44:00,39.5,28.7,30.04,WNW,284,2.0,2.0,65,0.00,,,0.00,Wunderground v.1.15,2013-01-17 21:44:00,
2013-01-17 16:50:00,39.5,29.4,30.04,WNW,284,1.0,1.0,67,0.00,,,0.00,Wunderground v.1.15,2013-01-17 21:50:00,
2013-01-17 16:56:00,39.5,29.4,30.05,WNW,284,1.0,2.0,67,0.00,,,0.00,Wunderground v.1.15,2013-01-17 21:56:00,
2013-01-17 17:02:00,39.5,29.8,30.05,WNW,284,0.0,0.0,68,0.00,,,0.00,Wunderground v.1.15,2013-01-17 22:02:00,
2013-01-17 17:07:00,39.6,29.9,30.05,WNW,284,0.0,1.0,68,0.00,,,0.00,Wunderground v.1.15,2013-01-17 22:07:00,
2013-01-17 17:12:00,39.6,29.9,30.05,WNW,284,0.0,1.0,68,0.00,,,0.00,Wunderground v.1.15,2013-01-17 22:12:00,
2013-01-17 17:18:00,39.6,30.6,30.05,WNW,284,0.0,1.0,70,0.00,,,0.00,Wunderground v.1.15,2013-01-17 22:18:00,
2013-01-17 17:24:00,39.6,30.6,30.05,WNW,284,0.0,0.0,70,0.00,,,0.00,Wunderground v.1.15,2013-01-17 22:24:00,
2013-01-17 17:30:00,39.5,30.9,30.06,WNW,284,0.0,0.0,71,0.00,,,0.00,Wunderground v.1.15,2013-01-17 22:30:00,
2013-01-17 17:36:00,39.4,30.4,30.06,WNW,284,0.0,0.0,70,0.00,,,0.00,Wunderground v.1.15,2013-01-17 22:36:00,
2013-01-17 17:42:00,39.2,30.9,30.08,WNW,284,0.0,0.0,72,0.00,,,0.00,Wunderground v.1.15,2013-01-17 22:42:00,
2013-01-17 17:48:00,39.2,30.6,30.07,WNW,284,0.0,0.0,71,0.00,,,0.00,Wunderground v.1.15,2013-01-17 22:48:00,
2013-01-17 17:53:00,39.0,30.7,30.06,WNW,284,0.0,0.0,72,0.00,,,0.00,Wunderground v.1.15,2013-01-17 22:53:00,
2013-01-17 17:58:00,38.8,30.9,30.06,WNW,284,0.0,0.0,73,0.00,,,0.00,Wunderground v.1.15,2013-01-17 22:58:00,
2013-01-17 18:04:00,38.5,30.9,30.05,WNW,284,0.0,0.0,74,0.00,,,0.00,Wunderground v.1.15,2013-01-17 23:04:00,
2013-01-17 18:09:00,38.2,31.3,30.06,WNW,284,0.0,0.0,76,0.00,,,0.00,Wunderground v.1.15,2013-01-17 23:09:00,
2013-01-17 18:15:00,37.8,30.9,30.07,WNW,284,0.0,2.0,76,0.00,,,0.00,Wunderground v.1.15,2013-01-17 23:15:00,
2013-01-17 18:20:00,37.7,30.8,30.07,WNW,284,0.0,0.0,76,0.00,,,0.00,Wunderground v.1.15,2013-01-17 23:20:00,
2013-01-17 18:26:00,37.7,31.1,30.08,WNW,284,0.0,0.0,77,0.00,,,0.00,Wunderground v.1.15,2013-01-17 23:26:00,
2013-01-17 18:32:00,37.7,31.1,30.07,WNW,284,0.0,0.0,77,0.00,,,0.00,Wunderground v.1.15,2013-01-17 23:32:00,
2013-01-17 18:38:00,37.5,30.9,30.07,WNW,284,0.0,0.0,77,0.00,,,0.00,Wunderground v.1.15,2013-01-17 23:38:00,
2013-01-17 18:44:00,37.4,31.2,30.07,WNW,284,0.0,0.0,78,0.00,,,0.00,Wunderground v.1.15,2013-01-17 23:44:00,
2013-01-17 18:49:00,37.5,31.3,30.06,WNW,284,0.0,0.0,78,0.00,,,0.00,Wunderground v.1.15,2013-01-17 23:49:00,
2013-01-17 18:55:00,37.6,31.4,30.07,WNW,284,0.0,0.0,78,0.00,,,0.00,Wunderground v.1.15,2013-01-17 23:55:00,
2013-01-17 19:00:00,37.6,31.4,30.08,WNW,286,0.0,0.0,78,0.00,,,0.00,Wunderground v.1.15,2013-01-18 00:00:00,
2013-01-17 19:06:00,37.5,31.3,30.07,WNW,286,0.0,0.0,78,0.00,,,0.00,Wunderground v.1.15,2013-01-18 00:06:00,
2013-01-17 19:11:00,37.3,31.4,30.08,WNW,286,0.0,0.0,79,0.00,,,0.00,Wunderground v.1.15,2013-01-18 00:11:00,
2013-01-17 19:16:00,37.1,30.9,30.07,North,11,0.0,3.0,78,0.00,,,0.00,Wunderground v.1.15,2013-01-18 00:16:00,
2013-01-17 19:22:00,36.9,30.0,30.07,NW,311,1.0,2.0,76,0.00,,,0.00,Wunderground v.1.15,2013-01-18 00:22:00,
2013-01-17 19:28:00,37.0,29.8,30.07,North,351,3.0,4.0,75,0.00,,,0.00,Wunderground v.1.15,2013-01-18 00:28:00,
2013-01-17 19:34:00,36.9,29.4,30.07,NNW,345,3.0,3.0,74,0.00,,,0.00,Wunderground v.1.15,2013-01-18 00:34:00,
2013-01-17 19:39:00,36.9,29.4,30.07,NNW,338,2.0,5.0,74,0.00,,,0.00,Wunderground v.1.15,2013-01-18 00:39:00,
2013-01-17 19:45:00,36.9,29.4,30.07,North,355,1.0,2.0,74,0.00,,,0.00,Wunderground v.1.15,2013-01-18 00:45:00,
2013-01-17 19:50:00,36.8,29.3,30.06,North,355,2.0,2.0,74,0.00,,,0.00,Wunderground v.1.15,2013-01-18 00:50:00,
2013-01-17 19:55:00,36.8,29.3,30.07,North,355,1.0,2.0,74,0.00,,,0.00,Wunderground v.1.15,2013-01-18 00:55:00,
2013-01-17 20:00:00,36.8,29.3,30.06,NNW,346,2.0,2.0,74,0.00,,,0.00,Wunderground v.1.15,2013-01-18 01:00:00,
2013-01-17 20:06:00,36.7,28.9,30.07,NNE,19,2.0,4.0,73,0.00,,,0.00,Wunderground v.1.15,2013-01-18 01:06:00,
2013-01-17 20:11:00,36.6,28.8,30.07,NNE,29,1.0,2.0,73,0.00,,,0.00,Wunderground v.1.15,2013-01-18 01:11:00,
2013-01-17 20:17:00,36.4,28.6,30.07,North,355,1.0,3.0,73,0.00,,,0.00,Wunderground v.1.15,2013-01-18 01:17:00,
2013-01-17 20:23:00,36.1,28.6,30.07,NNE,13,2.0,3.0,74,0.00,,,0.00,Wunderground v.1.15,2013-01-18 01:23:00,
2013-01-17 20:29:00,35.9,28.1,30.07,NNE,28,2.0,4.0,73,0.00,,,0.00,Wunderground v.1.15,2013-01-18 01:29:00,
2013-01-17 20:35:00,35.8,28.3,30.07,North,9,1.0,4.0,74,0.00,,,0.00,Wunderground v.1.15,2013-01-18 01:35:00,
2013-01-17 20:41:00,35.6,27.5,30.06,NNW,342,2.0,4.0,72,0.00,,,0.00,Wunderground v.1.15,2013-01-18 01:41:00,
2013-01-17 20:47:00,35.4,27.3,30.06,North,350,2.0,4.0,72,0.00,,,0.00,Wunderground v.1.15,2013-01-18 01:47:00,
2013-01-17 20:52:00,35.2,26.7,30.06,NNW,338,2.0,5.0,71,0.00,,,0.00,Wunderground v.1.15,2013-01-18 01:52:00,
2013-01-17 20:58:00,35.0,26.5,30.05,NNE,17,3.0,5.0,71,0.00,,,0.00,Wunderground v.1.15,2013-01-18 01:58:00,
2013-01-17 21:04:00,34.7,25.9,30.05,NNW,332,3.0,5.0,70,0.00,,,0.00,Wunderground v.1.15,2013-01-18 02:04:00,
2013-01-17 21:08:00,34.5,25.4,30.05,North,355,3.0,5.0,69,0.00,,,0.00,Wunderground v.1.15,2013-01-18 02:08:00,
2013-01-17 21:14:00,34.3,25.5,30.05,North,355,3.0,6.0,70,0.00,,,0.00,Wunderground v.1.15,2013-01-18 02:14:00,
2013-01-17 21:20:00,34.2,25.1,30.05,ENE,72,3.0,7.0,69,0.00,,,0.00,Wunderground v.1.15,2013-01-18 02:20:00,
2013-01-17 21:26:00,34.0,25.2,30.06,North,360,3.0,7.0,70,0.00,,,0.00,Wunderground v.1.15,2013-01-18 02:26:00,
2013-01-17 21:31:00,34.0,25.2,30.06,North,351,3.0,3.0,70,0.00,,,0.00,Wunderground v.1.15,2013-01-18 02:31:00,
2013-01-17 21:37:00,33.9,25.1,30.05,NNE,16,2.0,6.0,70,0.00,,,0.00,Wunderground v.1.15,2013-01-18 02:37:00,
2013-01-17 21:43:00,33.8,25.4,30.04,North,355,2.0,2.0,71,0.00,,,0.00,Wunderground v.1.15,2013-01-18 02:43:00,
2013-01-17 21:49:00,33.8,25.4,30.05,North,355,1.0,3.0,71,0.00,,,0.00,Wunderground v.1.15,2013-01-18 02:49:00,
2013-01-17 21:54:00,33.8,24.7,30.05,North,351,1.0,4.0,69,0.00,,,0.00,Wunderground v.1.15,2013-01-18 02:54:00,
2013-01-17 22:00:00,33.8,25.0,30.05,North,351,2.0,2.0,70,0.00,,,0.00,Wunderground v.1.15,2013-01-18 03:00:00,
2013-01-17 22:06:00,33.7,24.6,30.04,NNW,340,2.0,5.0,69,0.00,,,0.00,Wunderground v.1.15,2013-01-18 03:06:00,
2013-01-17 22:11:00,33.5,24.4,30.04,NNW,327,2.0,5.0,69,0.00,,,0.00,Wunderground v.1.15,2013-01-18 03:11:00,
2013-01-17 22:16:00,33.3,24.2,30.04,NNE,15,3.0,5.0,69,0.00,,,0.00,Wunderground v.1.15,2013-01-18 03:16:00,
2013-01-17 22:22:00,33.2,24.1,30.03,NNW,348,3.0,6.0,69,0.00,,,0.00,Wunderground v.1.15,2013-01-18 03:22:00,
2013-01-17 22:28:00,32.9,23.5,30.02,North,5,4.0,7.0,68,0.00,,,0.00,Wunderground v.1.15,2013-01-18 03:28:00,
2013-01-17 22:33:00,32.7,23.6,30.02,WNW,298,3.0,5.0,69,0.00,,,0.00,Wunderground v.1.15,2013-01-18 03:33:00,
2013-01-17 22:39:00,32.5,23.5,30.01,NW,311,3.0,6.0,69,0.00,,,0.00,Wunderground v.1.15,2013-01-18 03:39:00,
2013-01-17 22:45:00,32.3,23.6,30.01,ENE,57,3.0,5.0,70,0.00,,,0.00,Wunderground v.1.15,2013-01-18 03:45:00,
2013-01-17 22:51:00,32.2,23.5,30.01,North,351,2.0,4.0,70,0.00,,,0.00,Wunderground v.1.15,2013-01-18 03:51:00,
2013-01-17 22:56:00,32.1,23.8,29.99,North,5,2.0,5.0,71,0.00,,,0.00,Wunderground v.1.15,2013-01-18 03:56:00,
2013-01-17 23:01:00,32.0,23.0,30.00,NE,47,4.0,4.0,69,0.00,,,0.00,Wunderground v.1.15,2013-01-18 04:01:00,
2013-01-17 23:07:00,32.0,23.3,30.01,NNE,22,3.0,6.0,70,0.00,,,0.00,Wunderground v.1.15,2013-01-18 04:07:00,
2013-01-17 23:13:00,32.0,23.7,30.04,NNE,22,1.0,2.0,71,0.00,,,0.00,Wunderground v.1.15,2013-01-18 04:13:00,
2013-01-17 23:19:00,32.0,23.3,30.04,North,355,1.0,2.0,70,0.00,,,0.00,Wunderground v.1.15,2013-01-18 04:19:00,
2013-01-17 23:24:00,32.0,22.6,30.05,NW,317,2.0,2.0,68,0.00,,,0.00,Wunderground v.1.15,2013-01-18 04:24:00,
2013-01-17 23:30:00,31.9,22.9,30.04,NE,36,2.0,2.0,69,0.00,,,0.00,Wunderground v.1.15,2013-01-18 04:30:00,
2013-01-17 23:36:00,31.6,21.9,30.04,NNE,30,3.0,5.0,67,0.00,,,0.00,Wunderground v.1.15,2013-01-18 04:36:00,
2013-01-17 23:42:00,31.4,22.1,30.03,North,5,3.0,7.0,68,0.00,,,0.00,Wunderground v.1.15,2013-01-18 04:42:00,
2013-01-17 23:47:00,31.3,22.0,30.03,NNE,20,3.0,7.0,68,0.00,,,0.00,Wunderground v.1.15,2013-01-18 04:47:00,
2013-01-17 23:53:00,31.1,21.8,30.04,NNW,346,4.0,4.0,68,0.00,,,0.00,Wunderground v.1.15,2013-01-18 04:53:00,
2013-01-17 23:59:00,31.1,21.8,30.05,NNE,20,3.0,4.0,68,0.00,,,0.00,Wunderground v.1.15,2013-01-18 04:59:00,